Regional Weather Roundup
Issued by NWS State College, PA

Home | Current Version | Previous Version | Graphics & Text | Print | Product List | Glossary On
Versions: 1 2 3 4 5 6 7 8 9 10 11 12 13 14 15 16 17 18 19 20 21 22 23 24 25 26 27 28 29 30 31 32 33 34 35 36 37 38 39 40 41 42 43 44 45 46 47 48 49 50
000
ASUS41 KCTP 202303
RWRCTP

REGIONAL WEATHER ROUNDUP
NATIONAL WEATHER SERVICE STATE COLLEGE PA
700 PM EDT WED AUG 20 2014

Note: "fair" indicates few or no clouds below 12,000 feet with no
significant weather and/or obstructions to visibility.

* = STATION THAT DOES NOT REPORT PRECIPITATION /E.G. RAIN...SNOW...ETC/
    THUNDER OR FOG.

PAZ002>004-007>009-013>016-020>023-029>032-210000-
WESTERN PENNSYLVANIA

CITY           SKY/WX    TMP DP  RH WIND       PRES   REMARKS
ERIE           PTSUNNY   74  66  76 S8        29.92F
MEADVILLE      CLOUDY    72  64  76 SW5       29.96S
FRANKLIN*      CLOUDY    70  64  83 W8        29.98F THUNDER
NEW CASTLE     NOT AVBL
BEAVER COUNTY  CLOUDY    79  70  73 SW3       29.95F
BUTLER*        CLOUDY    79  68  69 SW5       29.98S
PITTSBURGH INT CLOUDY    78  69  73 S3        29.95F
PITTSBURGH     PTSUNNY   79  64  60 SW5       29.95F
INDIANA*       SUNNY     77  68  73 CALM      30.01S
LATROBE        PTSUNNY   79  70  73 W7        29.98R
WASHINGTON CO* CLOUDY    75  68  78 CALM      29.97F
$$

PAZ004>006-010>012-017>019-024>028-033>037-041-042-045-046-049>053-210000-
CENTRAL PENNSYLVANIA

CITY           SKY/WX    TMP DP  RH WIND       PRES   REMARKS
BRADFORD       MOSUNNY   71  61  70 CALM      29.99S
DUBOIS         MOSUNNY   72  65  78 S3        29.98S
CLEARFIELD     SUNNY     75  65  70 SW6       29.98S
JOHNSTOWN      SUNNY     74  63  68 SW6       30.01F
ALTOONA        PTSUNNY   75  70  84 E3        29.99S
STATE COLLEGE  MOSUNNY   73  68  83 S6        29.98S
WILLIAMSPORT   PTSUNNY   75  66  73 SE8       29.95S
SELINSGROVE    MOCLDY    73  68  84 VRB3      29.98S HAZE
FT INDIANTOWN  DRIZZLE   72  72 100 N2        29.99S
CAPITAL CITY   CLOUDY    76  67  73 S7        29.97F
HARRISBURG     CLOUDY    78  68  71 SE6       29.96F
YORK           CLOUDY    75  67  76 SE3       29.98S
$$

PAZ038>040-043-044-047-048-054-055-060>062-067>071-210000-
EASTERN PENNSYLVANIA

CITY           SKY/WX    TMP DP  RH WIND       PRES   REMARKS
SCRANTON       LGT RAIN  76  65  68 SW3       29.99R
MOUNT POCONO   LGT RAIN  72  64  76 S6        30.04S
ALLENTOWN      CLOUDY    80  63  55 SW9       29.98R
QUAKERTOWN*    CLOUDY    79  66  65 MISG      30.00R
READING        CLOUDY    79  65  62 SW7       29.97S
LANCASTER      CLOUDY    76  67  73 S3        29.98S
COATESVILLE    MOCLDY    75  66  73 CALM      30.00F
POTTSTOWN      CLOUDY    79  64  60 S3        30.00R
BLUE BELL      MOCLDY    81  64  57 CALM      29.98R
DOYLESTOWN     CLOUDY    78  64  61 VRB6      29.98R
WILLOW GROVE   NOT AVBL
NORTH PHILA    CLOUDY    81  61  50 SE8       30.00R
PHILADELPHIA   CLOUDY    81  66  60 S13       29.99R
$$


USA.gov is the U.S. government's official web portal to all federal, state and local government web resources and services.